BEIDOU-2 G6

Last updated on Thu Nov 21 2024 00:02:42 GMT+0000 (Coordinated Universal Time)

1 38953U 12059A 24325.09758198 -.00000174 00000+0 00000+0 0 9999 2 38953 2.9581 79.2188 0006888 289.7056 169.7966 1.00274342 44158
UTC large
Height (km)
Speed (km/s)
/
Latitude / Longitude
Inclination (degrees)
Orbital Period (minutes)
Azimuth
Elevation
Range (km)
Doppler Factor

Next 0 passes for location: London (51.5072 / 0.1276)

Sorry there are no passes over London.